This demonstration page uses our WeatherBlox Daily Observations layout. Learn more.

Left ArrowRight Arrow

Hourly Observations for May 4, 2015

Temp ( °F °C ) Dew Point ( °F °C ) Humidity (%) Winds ( mph kmh ) Pressure ( in mb ) Visibility ( mi km ) Precip ( " mm )
12:16 am 00:16 Clear 63 17 37 3 39 39 S 6 9 30.06 1018 10 16.0934 N/A
12:35 am 00:35 Clear 63 17 39 4 42 42 S 6 9 30.06 1018 10 16.0934 N/A
12:56 am 00:56 Clear 61 16 39 4 45 45 S 5 7 30.06 1018 10 16.0934 N/A
1:15 am 01:15 Clear 63 17 39 4 42 42 SSW 3 6 30.06 1018 10 16.0934 N/A
1:36 am 01:36 Clear 61 16 39 4 45 45 S 6 9 30.06 1018 10 16.0934 N/A
1:55 am 01:55 Clear 61 16 39 4 45 45 S 6 9 30.06 1018 10 16.0934 N/A
2:16 am 02:16 Clear 61 16 39 4 45 45 S 6 9 30.06 1018 10 16.0934 N/A
2:35 am 02:35 Clear 61 16 41 5 48 48 S 6 9 30.06 1018 10 16.0934 N/A
2:56 am 02:56 Clear 59 15 41 5 51 51 S 5 7 30.06 1018 10 16.0934 N/A
3:16 am 03:16 Clear 59 15 41 5 51 51 S 6 9 30.06 1018 10 16.0934 N/A
3:36 am 03:36 Clear 59 15 41 5 51 51 S 6 9 30.06 1018 10 16.0934 N/A
3:56 am 03:56 Clear 59 15 41 5 51 51 S 6 9 30.06 1018 10 16.0934 N/A
4:16 am 04:16 Clear 59 15 41 5 51 51 S 7 11 30.06 1018 10 16.0934 N/A
4:36 am 04:36 Clear 57 14 41 5 55 55 S 7 11 30.09 1019 10 16.0934 N/A
4:56 am 04:56 Clear 57 14 41 5 55 55 S 7 11 30.09 1019 10 16.0934 N/A
5:16 am 05:16 Clear 57 14 41 5 55 55 S 7 11 30.09 1019 10 16.0934 N/A
5:36 am 05:36 Clear 57 14 41 5 55 55 S 6 9 30.09 1019 10 16.0934 N/A
5:56 am 05:56 Clear 57 14 41 5 55 55 S 8 13 30.06 1018 10 16.0934 N/A
6:15 am 06:15 Clear 57 14 41 5 55 55 S 7 11 30.09 1019 10 16.0934 N/A
6:36 am 06:36 Clear 57 14 43 6 59 59 S 7 11 30.09 1019 10 16.0934 N/A
6:56 am 06:56 Sunny 57 14 43 6 59 59 S 8 13 30.09 1019 10 16.0934 N/A
7:16 am 07:16 Sunny 57 14 43 6 59 59 S 7 11 30.09 1019 10 16.0934 N/A
7:36 am 07:36 Sunny 59 15 43 6 55 55 S 8 13 30.09 1019 10 16.0934 N/A
7:56 am 07:56 Sunny 59 15 43 6 55 55 S 9 15 30.12 1020 10 16.0934 N/A
8:16 am 08:16 Sunny 61 16 43 6 52 52 S 9 15 30.12 1020 10 16.0934 N/A
8:36 am 08:36 Sunny 63 17 41 5 45 45 SSW 13 20 30.12 1020 10 16.0934 N/A
8:56 am 08:56 Sunny 64 18 41 5 43 43 SSW 12 19 30.12 1020 10 16.0934 N/A
9:16 am 09:16 Sunny 66 19 41 5 40 40 SSW 13 20 30.12 1020 10 16.0934 N/A
9:36 am 09:36 Sunny 68 20 41 5 38 38 SSW 13 20 30.12 1020 10 16.0934 N/A
9:56 am 09:56 Sunny 70 21 39 4 33 33 SW 14 22 30.15 1021 10 16.0934 N/A
10:16 am 10:16 Partly Cloudy 68 20 37 3 33 33 W 15 24 30.15 1021 10 16.0934 N/A
10:36 am 10:36 Partly Cloudy 68 20 39 4 35 35 W 10 17 30.18 1022 10 16.0934 N/A
10:55 am 10:55 Sunny 70 21 39 4 33 33 W 12 19 30.18 1022 10 16.0934 N/A
11:16 am 11:16 Sunny 70 21 41 5 35 35 W 10 17 30.18 1022 10 16.0934 N/A
11:36 am 11:36 Sunny 68 20 41 5 38 38 W 13 20 30.18 1022 10 16.0934 N/A
11:56 am 11:56 Mostly Cloudy 66 19 46 8 49 49 W 10 17 30.18 1022 10 16.0934 N/A
12:16 pm 12:16 Cloudy 63 17 50 10 64 64 SW 6 9 30.18 1022 5 8.0467 N/A
12:36 pm 12:36 Cloudy 63 17 54 12 73 73 S 8 13 30.18 1022 7 11.26538 N/A
12:56 pm 12:56 Mostly Cloudy 63 17 63 17 100 100 SSE 8 13 30.18 1022 10 16.0934 N/A
1:16 pm 13:16 Partly Cloudy 63 17 57 14 83 83 S 8 13 30.18 1022 10 16.0934 N/A
1:36 pm 13:36 Partly Cloudy 64 18 55 13 73 73 S 8 13 30.15 1021 10 16.0934 N/A
1:56 pm 13:56 Sunny 66 19 54 12 64 64 S 9 15 30.15 1021 10 16.0934 N/A
2:16 pm 14:16 Partly Cloudy 66 19 52 11 60 60 S 8 13 30.15 1021 10 16.0934 N/A
2:36 pm 14:36 Sunny 66 19 52 11 60 60 SSW 8 13 30.15 1021 10 16.0934 N/A
2:55 pm 14:55 Sunny 68 20 52 11 56 56 SSW 7 11 30.18 1022 10 16.0934 N/A
3:16 pm 15:16 Partly Cloudy 68 20 54 12 60 60 S 7 11 30.18 1022 10 16.0934 N/A
3:36 pm 15:36 Sunny 68 20 54 12 60 60 S 7 11 30.18 1022 10 16.0934 N/A
3:56 pm 15:56 Sunny 70 21 52 11 53 53 S 8 13 30.18 1022 10 16.0934 N/A
4:16 pm 16:16 Sunny 72 22 52 11 50 50 S 9 15 30.15 1021 10 16.0934 N/A
4:35 pm 16:35 Sunny 73 23 50 10 44 44 SSW 9 15 30.12 1020 10 16.0934 N/A
4:56 pm 16:56 Sunny 73 23 48 9 41 41 SSW 10 17 30.12 1020 10 16.0934 N/A
5:16 pm 17:16 Sunny 73 23 50 10 44 44 SSW 7 11 30.12 1020 10 16.0934 N/A
5:36 pm 17:36 Sunny 75 24 48 9 39 39 SSW 9 15 30.12 1020 10 16.0934 N/A
5:56 pm 17:56 Sunny 75 24 48 9 39 39 WSW 7 11 30.12 1020 10 16.0934 N/A
6:16 pm 18:16 Sunny 75 24 46 8 36 36 SW 8 13 30.12 1020 10 16.0934 N/A
6:36 pm 18:36 Sunny 75 24 46 8 36 36 SW 7 11 30.12 1020 10 16.0934 N/A
6:56 pm 18:56 Sunny 75 24 46 8 36 36 SW 6 9 30.12 1020 10 16.0934 N/A
7:16 pm 19:16 Sunny 73 23 46 8 38 38 SSW 3 6 30.12 1020 10 16.0934 N/A
7:36 pm 19:36 Sunny 73 23 48 9 41 41 SSE 3 6 30.12 1020 10 16.0934 N/A
7:55 pm 19:55 Sunny 72 22 50 10 47 47 NNE 12 19 30.15 1021 10 16.0934 N/A
8:16 pm 20:16 Mostly Cloudy 68 20 54 12 60 60 NNW 18 30 30.18 1022 5 8.0467 N/A
8:36 pm 20:36 Cloudy 63 17 59 15 88 88 N 10 17 30.18 1022 7 11.26538 N/A
8:56 pm 20:56 Mostly Cloudy 63 17 N/A N/A NNE 9 15 30.18 1022 7 11.26538 N/A
9:16 pm 21:16 Partly Cloudy 63 17 N/A N/A NNE 8 13 30.18 1022 5 8.0467 N/A
9:36 pm 21:36 Partly Cloudy 63 17 N/A N/A NE 5 7 30.18 1022 7 11.26538 N/A
9:56 pm 21:56 Partly Cloudy 63 17 N/A N/A ENE 6 9 30.18 1022 10 16.0934 N/A
10:16 pm 22:16 Partly Cloudy 63 17 N/A N/A E 6 9 30.18 1022 7 11.26538 N/A
10:36 pm 22:36 Partly Cloudy 63 17 N/A N/A ESE 6 9 30.18 1022 10 16.0934 N/A
10:56 pm 22:56 Clear 63 17 N/A N/A ESE 5 7 30.18 1022 7 11.26538 N/A
11:16 pm 23:16 Clear 63 17 N/A N/A SSE 6 9 30.18 1022 7 11.26538 N/A
11:36 pm 23:36 Clear 63 17 N/A N/A SE 6 9 30.18 1022 5 8.0467 N/A
11:56 pm 23:56 Clear 64 18 N/A N/A SE 9 15 30.18 1022 5 8.0467 N/A

Powered by AerisWeather